Auburn, CA

12:05 PM PST on December 05, 2019 (GMT -0800)
Auburn Municipal

Weather History for KAUN - August, 2019

Change the Weather History Date:

Thursday, August 15, 2019

  Actual Average Record
Temperature  
Mean Temperature 86 °F -  
Max Temperature 98 °F 88 °F 105 °F (1967)
Min Temperature 73 °F 60 °F 48 °F (1954)
Cooling Degree Days 20    
Growing Degree Days 36 (Base 50)    
Moisture  
Dew Point 49 °F    
Average Humidity 30    
Maximum Humidity 41    
Minimum Humidity 16    
Precipitation  
Precipitation 0.00 in - - ()
Sea Level Pressure  
Sea Level Pressure 29.96 in    
Wind  
Wind Speed 4 mph ()    
Max Wind Speed 9 mph    
Max Gust Speed 14 mph    
Visibility 9.8 miles    
Events      
Averages and records for this station are not official NWS values.
T = Trace of Precipitation, MM = Missing Value Source: Averaged Metar Reports

Daily Weather History Graph

Daily Weather History Graph

Search for Another Location

Airport or City:

Astronomy

Aug. 15, 2019 Rise Set
Actual Time 6:17 AM PDT 7:59 PM PDT
Civil Twilight 5:49 AM PDT 8:27 PM PDT
Nautical Twilight 5:14 AM PDT 9:02 PM PDT
Astronomical Twilight 4:37 AM PDT 9:38 PM PDT
Moon 8:30 PM PDT (8/15) 6:17 AM PDT (8/15)
Length of Visible Light 14h 38m
Length of Day
13h 41m
Full, 100% of the Moon is Illuminated
Aug 15
Full
Aug 23
Last Quarter
Aug 30
New
Sep 5
First Quarter
Sep 13
Full

Hourly Weather History & Observations

Time (PDT) Temp. Heat Index Dew Point Humidity Pressure Visibility Wind Dir Wind Speed Gust Speed Precip Events Conditions
12:15 AM 77.0 °F - 51.8 °F 41% 30.00 in 10.0 mi Calm Calm - N/A   Clear
12:35 AM 77.0 °F - 51.8 °F 41% 30.01 in 10.0 mi Calm Calm - N/A   Clear
12:55 AM 78.8 °F - 51.8 °F 39% 30.00 in 10.0 mi East 8.1 mph - N/A   Clear
1:15 AM 78.8 °F - 51.8 °F 39% 30.00 in 10.0 mi East 9.2 mph - N/A   Clear
1:55 AM 77.0 °F - 51.8 °F 41% 29.99 in 10.0 mi East 9.2 mph - N/A   Clear
2:15 AM 77.0 °F - 51.8 °F 41% 29.99 in 10.0 mi East 9.2 mph - N/A   Clear
2:35 AM 77.0 °F - 50.0 °F 39% 29.99 in 10.0 mi East 9.2 mph - N/A   Clear
2:55 AM 77.0 °F - 50.0 °F 39% 29.99 in 10.0 mi East 9.2 mph - N/A   Clear
3:15 AM 77.0 °F - 50.0 °F 39% 29.99 in 10.0 mi East 9.2 mph - N/A   Clear
3:35 AM 77.0 °F - 50.0 °F 39% 29.99 in 10.0 mi East 6.9 mph - N/A   Clear
3:55 AM 77.0 °F - 50.0 °F 39% 29.99 in 10.0 mi East 8.1 mph - N/A   Clear
4:15 AM 75.2 °F - 50.0 °F 41% 29.99 in 10.0 mi East 5.8 mph - N/A   Clear
4:35 AM 75.2 °F - 50.0 °F 41% 29.99 in 10.0 mi East 8.1 mph - N/A   Clear
4:55 AM 75.2 °F - 50.0 °F 41% 29.99 in 10.0 mi East 8.1 mph - N/A   Clear
5:15 AM 75.2 °F - 48.2 °F 38% 29.99 in 10.0 mi East 3.5 mph - N/A   Clear
5:35 AM 75.2 °F - 48.2 °F 38% 29.99 in 10.0 mi Calm Calm - N/A   Clear
5:55 AM 73.4 °F - 48.2 °F 41% 30.00 in 10.0 mi East 5.8 mph - N/A   Clear
6:15 AM 73.4 °F - 48.2 °F 41% 30.00 in 10.0 mi East 4.6 mph - N/A   Clear
6:35 AM 73.4 °F - 48.2 °F 41% 30.00 in 10.0 mi Calm Calm - N/A   Clear
6:55 AM 73.4 °F - 48.2 °F 41% 30.00 in 10.0 mi Calm Calm - N/A   Clear
7:15 AM 75.2 °F - 48.2 °F 38% 30.00 in 10.0 mi Calm Calm - N/A   Clear
7:35 AM 78.8 °F - 48.2 °F 34% 30.00 in 10.0 mi Calm Calm - N/A   Clear
7:55 AM 80.6 °F - 48.2 °F 32% 30.00 in 10.0 mi Calm Calm - N/A   Clear
8:15 AM 80.6 °F - 48.2 °F 32% 30.00 in 10.0 mi Calm Calm - N/A   Clear
8:35 AM 82.4 °F - 48.2 °F 30% 30.00 in 10.0 mi Calm Calm - N/A   Clear
8:55 AM 84.2 °F - 48.2 °F 29% 30.00 in 10.0 mi Calm Calm - N/A   Clear
9:15 AM 86.0 °F - 50.0 °F 29% 29.99 in 10.0 mi Calm Calm - N/A   Clear
9:35 AM 87.8 °F - 48.2 °F 25% 29.99 in 9.0 mi Calm Calm - N/A   Clear
9:55 AM 89.6 °F - 50.0 °F 26% 29.99 in 10.0 mi Calm Calm - N/A   Clear
10:15 AM 91.4 °F - 50.0 °F 24% 29.99 in 10.0 mi Calm Calm - N/A   Clear
10:35 AM 91.4 °F - 48.2 °F 23% 29.99 in 10.0 mi West 3.5 mph - N/A   Clear
10:55 AM 93.2 °F - 50.0 °F 23% 29.99 in 7.0 mi Variable 4.6 mph - N/A   Clear
11:15 AM 91.4 °F - 51.8 °F 26% 29.99 in 8.0 mi Calm Calm - N/A   Clear
11:35 AM 93.2 °F - 51.8 °F 24% 29.99 in 9.0 mi WSW 6.9 mph - N/A   Clear
11:55 AM 93.2 °F - 51.8 °F 24% 29.99 in 6.0 mi SW 8.1 mph - N/A   Haze
12:15 PM 95.0 °F - 51.8 °F 23% 29.98 in 10.0 mi SW 8.1 mph - N/A   Clear
12:35 PM 95.0 °F - 51.8 °F 23% 29.98 in 10.0 mi West 8.1 mph - N/A   Clear
12:55 PM 95.0 °F - 51.8 °F 23% 29.97 in 8.0 mi WNW 8.1 mph 13.8 mph N/A   Clear
1:15 PM 95.0 °F - 50.0 °F 22% 29.97 in 9.0 mi Variable 5.8 mph 11.5 mph N/A   Clear
1:35 PM 96.8 °F - 50.0 °F 20% 29.97 in 10.0 mi West 8.1 mph - N/A   Clear
1:55 PM 95.0 °F - 51.8 °F 23% 29.96 in 10.0 mi Variable 5.8 mph - N/A   Clear
2:15 PM 96.8 °F 94.4 °F 53.6 °F 23% 29.96 in 10.0 mi Variable 6.9 mph - N/A   Clear
2:35 PM 96.8 °F 94.4 °F 53.6 °F 23% 29.95 in 10.0 mi West 5.8 mph - N/A   Clear
2:55 PM 96.8 °F - 50.0 °F 20% 29.95 in 9.0 mi Calm Calm - N/A   Clear
3:15 PM 96.8 °F - 51.8 °F 22% 29.94 in 10.0 mi West 5.8 mph - N/A   Clear
3:35 PM 98.6 °F - 51.8 °F 21% 29.93 in 10.0 mi Variable 4.6 mph - N/A   Clear
3:55 PM 98.6 °F - 51.8 °F 21% 29.93 in 10.0 mi Calm Calm 11.5 mph N/A   Clear
4:15 PM 98.6 °F - 50.0 °F 19% 29.93 in 10.0 mi West 8.1 mph - N/A   Clear
4:35 PM 98.6 °F - 50.0 °F 19% 29.92 in 10.0 mi WSW 9.2 mph - N/A   Clear
4:55 PM 98.6 °F - 48.2 °F 18% 29.92 in 10.0 mi West 5.8 mph - N/A   Clear
5:15 PM 96.8 °F - 46.4 °F 18% 29.92 in 10.0 mi Calm Calm - N/A   Clear
5:35 PM 96.8 °F - 46.4 °F 18% 29.91 in 10.0 mi Calm Calm - N/A   Clear
5:55 PM 96.8 °F - 46.4 °F 18% 29.91 in 10.0 mi Calm Calm - N/A   Clear
6:15 PM 96.8 °F - 44.6 °F 17% 29.90 in 10.0 mi Calm Calm - N/A   Clear
6:35 PM 96.8 °F - 44.6 °F 17% 29.90 in 10.0 mi Calm Calm - N/A   Clear
6:55 PM 95.0 °F - 44.6 °F 18% 29.90 in 10.0 mi Calm Calm - N/A   Clear
7:15 PM 95.0 °F - 42.8 °F 16% 29.90 in 10.0 mi Calm Calm - N/A   Clear
7:35 PM 93.2 °F - 44.6 °F 19% 29.90 in 10.0 mi Calm Calm - N/A   Clear
7:55 PM 86.0 °F - 44.6 °F 23% 29.90 in 10.0 mi Calm Calm - N/A   Clear
8:15 PM 80.6 °F - 44.6 °F 28% 29.90 in 10.0 mi Calm Calm - N/A   Clear
8:35 PM 77.0 °F - 46.4 °F 34% 29.90 in 10.0 mi Calm Calm - N/A   Clear
8:55 PM 77.0 °F - 46.4 °F 34% 29.91 in 10.0 mi Calm Calm - N/A   Clear
9:15 PM 75.2 °F - 46.4 °F 36% 29.91 in 10.0 mi Calm Calm - N/A   Clear
9:35 PM 75.2 °F - 44.6 °F 34% 29.91 in 10.0 mi Calm Calm - N/A   Clear
9:55 PM 75.2 °F - 46.4 °F 36% 29.92 in 10.0 mi Calm Calm - N/A   Clear
10:15 PM 78.8 °F - 46.4 °F 32% 29.92 in 10.0 mi Calm Calm - N/A   Clear
10:35 PM 80.6 °F - 50.0 °F 34% 29.92 in 10.0 mi Calm Calm - N/A   Clear
10:55 PM 82.4 °F - 51.8 °F 35% 29.92 in 10.0 mi East 8.1 mph - N/A   Clear
11:15 PM 82.4 °F - 51.8 °F 35% 29.92 in 10.0 mi East 8.1 mph - N/A   Clear
11:35 PM 82.4 °F - 51.8 °F 35% 29.92 in 10.0 mi East 8.1 mph - N/A   Clear
11:55 PM 80.6 °F - 51.8 °F 37% 29.91 in 10.0 mi East 9.2 mph - N/A   Clear